#datetime,building,power
2022-11-13T00:00:00,mnr,9.94
2022-11-13T00:01:00,mnr,9.42
2022-11-13T00:02:00,mnr,9.57
2022-11-13T00:03:00,mnr,9.63
2022-11-13T00:04:00,mnr,9.70
2022-11-13T00:05:00,mnr,9.49
2022-11-13T00:06:00,mnr,10.35
2022-11-13T00:07:00,mnr,10.22
2022-11-13T00:08:00,mnr,10.18
2022-11-13T00:09:00,mnr,10.18
2022-11-13T00:10:00,mnr,10.95
2022-11-13T00:11:00,mnr,10.31
2022-11-13T00:12:00,mnr,10.19
2022-11-13T00:13:00,mnr,10.77
2022-11-13T00:14:00,mnr,14.67
2022-11-13T00:15:00,mnr,12.57
2022-11-13T00:16:00,mnr,13.19
2022-11-13T00:17:00,mnr,12.49
2022-11-13T00:18:00,mnr,12.55
2022-11-13T00:19:00,mnr,12.74
2022-11-13T00:20:00,mnr,12.72
2022-11-13T00:21:00,mnr,12.72
2022-11-13T00:22:00,mnr,12.62
2022-11-13T00:23:00,mnr,12.59
2022-11-13T00:24:00,mnr,13.23
2022-11-13T00:25:00,mnr,12.24
2022-11-13T00:26:00,mnr,12.24
2022-11-13T00:27:00,mnr,11.62
2022-11-13T00:28:00,mnr,11.63
2022-11-13T00:29:00,mnr,11.61
2022-11-13T00:30:00,mnr,11.45
2022-11-13T00:31:00,mnr,11.39
2022-11-13T00:32:00,mnr,11.49
2022-11-13T00:33:00,mnr,11.47
2022-11-13T00:34:00,mnr,11.53
2022-11-13T00:35:00,mnr,11.43
2022-11-13T00:36:00,mnr,11.83
2022-11-13T00:37:00,mnr,11.42
2022-11-13T00:38:00,mnr,11.37
2022-11-13T00:39:00,mnr,11.38
2022-11-13T00:40:00,mnr,12.10
2022-11-13T00:41:00,mnr,11.66
2022-11-13T00:42:00,mnr,11.55
2022-11-13T00:43:00,mnr,11.54
2022-11-13T00:44:00,mnr,11.49
2022-11-13T00:45:00,mnr,12.08
2022-11-13T00:46:00,mnr,11.46
2022-11-13T00:47:00,mnr,11.71
2022-11-13T00:48:00,mnr,11.60
2022-11-13T00:49:00,mnr,11.52
2022-11-13T00:50:00,mnr,11.17
2022-11-13T00:51:00,mnr,11.10
2022-11-13T00:52:00,mnr,10.88
2022-11-13T00:53:00,mnr,11.43
2022-11-13T00:54:00,mnr,10.92
2022-11-13T00:55:00,mnr,10.44
2022-11-13T00:56:00,mnr,10.36
2022-11-13T00:57:00,mnr,10.25
2022-11-13T00:58:00,mnr,9.73
2022-11-13T00:59:00,mnr,9.34
2022-11-13T01:00:00,mnr,8.93
2022-11-13T01:01:00,mnr,8.66
2022-11-13T01:02:00,mnr,9.04
2022-11-13T01:03:00,mnr,9.03
2022-11-13T01:04:00,mnr,8.96
2022-11-13T01:05:00,mnr,9.11
2022-11-13T01:06:00,mnr,9.21
2022-11-13T01:07:00,mnr,9.29
2022-11-13T01:08:00,mnr,9.26
2022-11-13T01:09:00,mnr,8.83
2022-11-13T01:10:00,mnr,9.34
2022-11-13T01:11:00,mnr,8.86
2022-11-13T01:12:00,mnr,8.85
2022-11-13T01:13:00,mnr,8.87
2022-11-13T01:14:00,mnr,8.92
2022-11-13T01:15:00,mnr,8.90
2022-11-13T01:16:00,mnr,8.97
2022-11-13T01:17:00,mnr,8.81
2022-11-13T01:18:00,mnr,9.27
2022-11-13T01:19:00,mnr,8.38
2022-11-13T01:20:00,mnr,8.30
2022-11-13T01:21:00,mnr,8.30
2022-11-13T01:22:00,mnr,8.30
2022-11-13T01:23:00,mnr,8.21
2022-11-13T01:24:00,mnr,8.50
2022-11-13T01:25:00,mnr,8.44
2022-11-13T01:26:00,mnr,8.43
2022-11-13T01:27:00,mnr,8.36
2022-11-13T01:28:00,mnr,8.54
2022-11-13T01:29:00,mnr,8.68
2022-11-13T01:30:00,mnr,9.21
2022-11-13T01:31:00,mnr,8.53
2022-11-13T01:32:00,mnr,8.61
2022-11-13T01:33:00,mnr,9.27
2022-11-13T01:34:00,mnr,8.61
2022-11-13T01:35:00,mnr,8.52
2022-11-13T01:36:00,mnr,8.53
2022-11-13T01:37:00,mnr,8.61
2022-11-13T01:38:00,mnr,8.62
2022-11-13T01:39:00,mnr,8.69
2022-11-13T01:40:00,mnr,8.55
2022-11-13T01:41:00,mnr,8.55
2022-11-13T01:42:00,mnr,8.64
2022-11-13T01:43:00,mnr,8.67
2022-11-13T01:44:00,mnr,8.57
2022-11-13T01:45:00,mnr,8.56
2022-11-13T01:46:00,mnr,8.59
2022-11-13T01:47:00,mnr,8.58
2022-11-13T01:48:00,mnr,9.84
2022-11-13T01:49:00,mnr,8.70
2022-11-13T01:50:00,mnr,8.50
2022-11-13T01:51:00,mnr,8.47
2022-11-13T01:52:00,mnr,8.62
2022-11-13T01:53:00,mnr,8.30
2022-11-13T01:54:00,mnr,8.09
2022-11-13T01:55:00,mnr,8.17
2022-11-13T01:56:00,mnr,8.17
2022-11-13T01:57:00,mnr,8.05
2022-11-13T01:58:00,mnr,8.93
2022-11-13T01:59:00,mnr,8.12
2022-11-13T02:00:00,mnr,8.03
2022-11-13T02:01:00,mnr,7.78
2022-11-13T02:02:00,mnr,8.27
2022-11-13T02:03:00,mnr,7.70
2022-11-13T02:04:00,mnr,7.60
2022-11-13T02:05:00,mnr,7.59
2022-11-13T02:06:00,mnr,7.62
2022-11-13T02:07:00,mnr,7.62
2022-11-13T02:08:00,mnr,7.55
2022-11-13T02:09:00,mnr,7.56
2022-11-13T02:10:00,mnr,7.58
2022-11-13T02:11:00,mnr,7.77
2022-11-13T02:12:00,mnr,8.43
2022-11-13T02:13:00,mnr,7.25
2022-11-13T02:14:00,mnr,7.20
2022-11-13T02:15:00,mnr,7.29
2022-11-13T02:16:00,mnr,7.23
2022-11-13T02:17:00,mnr,7.33
2022-11-13T02:18:00,mnr,8.02
2022-11-13T02:19:00,mnr,7.30
2022-11-13T02:20:00,mnr,7.32
2022-11-13T02:21:00,mnr,7.97
2022-11-13T02:22:00,mnr,7.28
2022-11-13T02:23:00,mnr,7.24
2022-11-13T02:24:00,mnr,7.19
2022-11-13T02:25:00,mnr,7.21
2022-11-13T02:26:00,mnr,7.05
2022-11-13T02:27:00,mnr,7.05
2022-11-13T02:28:00,mnr,7.11
2022-11-13T02:29:00,mnr,7.12
2022-11-13T02:30:00,mnr,7.19
2022-11-13T02:31:00,mnr,7.18
2022-11-13T02:32:00,mnr,7.05
2022-11-13T02:33:00,mnr,7.20
2022-11-13T02:34:00,mnr,7.08
2022-11-13T02:35:00,mnr,7.07
2022-11-13T02:36:00,mnr,7.11
2022-11-13T02:37:00,mnr,7.11
2022-11-13T02:38:00,mnr,7.03
2022-11-13T02:39:00,mnr,7.19
2022-11-13T02:40:00,mnr,7.13
2022-11-13T02:41:00,mnr,7.11
2022-11-13T02:42:00,mnr,7.08
2022-11-13T02:43:00,mnr,7.15
2022-11-13T02:44:00,mnr,7.09
2022-11-13T02:45:00,mnr,7.06
2022-11-13T02:46:00,mnr,7.34
2022-11-13T02:47:00,mnr,7.20
2022-11-13T02:48:00,mnr,7.16
2022-11-13T02:49:00,mnr,7.17
2022-11-13T02:50:00,mnr,7.57
2022-11-13T02:51:00,mnr,7.25
2022-11-13T02:52:00,mnr,7.28
2022-11-13T02:53:00,mnr,7.29
2022-11-13T02:54:00,mnr,7.28
2022-11-13T02:55:00,mnr,7.84
2022-11-13T02:56:00,mnr,7.16
2022-11-13T02:57:00,mnr,7.53
2022-11-13T02:58:00,mnr,7.53
2022-11-13T02:59:00,mnr,7.59
2022-11-13T03:00:00,mnr,7.61
2022-11-13T03:01:00,mnr,7.60
2022-11-13T03:02:00,mnr,7.73
2022-11-13T03:03:00,mnr,7.71
2022-11-13T03:04:00,mnr,7.65
2022-11-13T03:05:00,mnr,7.63
2022-11-13T03:06:00,mnr,7.78
2022-11-13T03:07:00,mnr,7.70
2022-11-13T03:08:00,mnr,7.69
2022-11-13T03:09:00,mnr,7.60
2022-11-13T03:10:00,mnr,7.55
2022-11-13T03:11:00,mnr,7.63
2022-11-13T03:12:00,mnr,7.66
2022-11-13T03:13:00,mnr,7.53
2022-11-13T03:14:00,mnr,7.52
2022-11-13T03:15:00,mnr,7.52
2022-11-13T03:16:00,mnr,7.56
2022-11-13T03:17:00,mnr,7.71
2022-11-13T03:18:00,mnr,7.65
2022-11-13T03:19:00,mnr,7.66
2022-11-13T03:20:00,mnr,7.61
2022-11-13T03:21:00,mnr,7.97
2022-11-13T03:22:00,mnr,7.76
2022-11-13T03:23:00,mnr,7.79
2022-11-13T03:24:00,mnr,7.73
2022-11-13T03:25:00,mnr,7.80
2022-11-13T03:26:00,mnr,8.13
2022-11-13T03:27:00,mnr,7.74
2022-11-13T03:28:00,mnr,7.66
2022-11-13T03:29:00,mnr,7.65
2022-11-13T03:30:00,mnr,7.62
2022-11-13T03:31:00,mnr,7.69
2022-11-13T03:32:00,mnr,7.66
2022-11-13T03:33:00,mnr,8.00
2022-11-13T03:34:00,mnr,7.67
2022-11-13T03:35:00,mnr,7.72
2022-11-13T03:36:00,mnr,7.63
2022-11-13T03:37:00,mnr,7.65
2022-11-13T03:38:00,mnr,7.85
2022-11-13T03:39:00,mnr,7.65
2022-11-13T03:40:00,mnr,7.57
2022-11-13T03:41:00,mnr,7.73
2022-11-13T03:42:00,mnr,7.60
2022-11-13T03:43:00,mnr,7.74
2022-11-13T03:44:00,mnr,7.26
2022-11-13T03:45:00,mnr,7.29
2022-11-13T03:46:00,mnr,7.26
2022-11-13T03:47:00,mnr,7.25
2022-11-13T03:48:00,mnr,8.11
2022-11-13T03:49:00,mnr,7.26
2022-11-13T03:50:00,mnr,7.25
2022-11-13T03:51:00,mnr,7.15
2022-11-13T03:52:00,mnr,7.23
2022-11-13T03:53:00,mnr,8.53
2022-11-13T03:54:00,mnr,7.96
2022-11-13T03:55:00,mnr,7.32
2022-11-13T03:56:00,mnr,7.39
2022-11-13T03:57:00,mnr,7.40
2022-11-13T03:58:00,mnr,7.40
2022-11-13T03:59:00,mnr,7.32
2022-11-13T04:00:00,mnr,7.30
2022-11-13T04:01:00,mnr,7.98
2022-11-13T04:02:00,mnr,7.39
2022-11-13T04:03:00,mnr,8.02
2022-11-13T04:04:00,mnr,7.91
2022-11-13T04:05:00,mnr,7.22
2022-11-13T04:06:00,mnr,7.23
2022-11-13T04:07:00,mnr,7.28
2022-11-13T04:08:00,mnr,8.01
2022-11-13T04:09:00,mnr,7.12
2022-11-13T04:10:00,mnr,7.13
2022-11-13T04:11:00,mnr,7.22
2022-11-13T04:12:00,mnr,7.19
2022-11-13T04:13:00,mnr,7.15
2022-11-13T04:14:00,mnr,7.21
2022-11-13T04:15:00,mnr,7.61
2022-11-13T04:16:00,mnr,7.91
2022-11-13T04:17:00,mnr,7.22
2022-11-13T04:18:00,mnr,7.27
2022-11-13T04:19:00,mnr,7.20
2022-11-13T04:20:00,mnr,7.32
2022-11-13T04:21:00,mnr,7.24
2022-11-13T04:22:00,mnr,7.30
2022-11-13T04:23:00,mnr,7.31
2022-11-13T04:24:00,mnr,8.06
2022-11-13T04:25:00,mnr,8.03
2022-11-13T04:26:00,mnr,7.49
2022-11-13T04:27:00,mnr,7.46
2022-11-13T04:28:00,mnr,7.78
2022-11-13T04:29:00,mnr,7.87
2022-11-13T04:30:00,mnr,8.38
2022-11-13T04:31:00,mnr,8.47
2022-11-13T04:32:00,mnr,8.50
2022-11-13T04:33:00,mnr,7.78
2022-11-13T04:34:00,mnr,7.84
2022-11-13T04:35:00,mnr,7.81
2022-11-13T04:36:00,mnr,7.85
2022-11-13T04:37:00,mnr,7.82
2022-11-13T04:38:00,mnr,7.76
2022-11-13T04:39:00,mnr,7.78
2022-11-13T04:40:00,mnr,7.72
2022-11-13T04:41:00,mnr,7.81
2022-11-13T04:42:00,mnr,7.70
2022-11-13T04:43:00,mnr,7.76
2022-11-13T04:44:00,mnr,7.68
2022-11-13T04:45:00,mnr,7.70
2022-11-13T04:46:00,mnr,7.70
2022-11-13T04:47:00,mnr,7.70
2022-11-13T04:48:00,mnr,7.61
2022-11-13T04:49:00,mnr,7.62
2022-11-13T04:50:00,mnr,7.57
2022-11-13T04:51:00,mnr,7.63
2022-11-13T04:52:00,mnr,7.62
2022-11-13T04:53:00,mnr,7.59
2022-11-13T04:54:00,mnr,7.53
2022-11-13T04:55:00,mnr,7.61
2022-11-13T04:56:00,mnr,7.61
2022-11-13T04:57:00,mnr,7.71
2022-11-13T04:58:00,mnr,7.72
2022-11-13T04:59:00,mnr,7.64
2022-11-13T05:00:00,mnr,7.65
2022-11-13T05:01:00,mnr,7.85
2022-11-13T05:02:00,mnr,9.11
2022-11-13T05:03:00,mnr,10.64
2022-11-13T05:04:00,mnr,10.87
2022-11-13T05:05:00,mnr,11.19
2022-11-13T05:06:00,mnr,11.61
2022-11-13T05:07:00,mnr,12.00
2022-11-13T05:08:00,mnr,12.73
2022-11-13T05:09:00,mnr,12.56
2022-11-13T05:10:00,mnr,13.59
2022-11-13T05:11:00,mnr,12.74
2022-11-13T05:12:00,mnr,13.53
2022-11-13T05:13:00,mnr,12.76
2022-11-13T05:14:00,mnr,12.97
2022-11-13T05:15:00,mnr,13.52
2022-11-13T05:16:00,mnr,12.53
2022-11-13T05:17:00,mnr,12.53
2022-11-13T05:18:00,mnr,12.43
2022-11-13T05:19:00,mnr,12.58
2022-11-13T05:20:00,mnr,14.48
2022-11-13T05:21:00,mnr,15.99
2022-11-13T05:22:00,mnr,14.17
2022-11-13T05:23:00,mnr,14.56
2022-11-13T05:24:00,mnr,13.90
2022-11-13T05:25:00,mnr,13.57
2022-11-13T05:26:00,mnr,13.94
2022-11-13T05:27:00,mnr,13.97
2022-11-13T05:28:00,mnr,13.77
2022-11-13T05:29:00,mnr,13.49
2022-11-13T05:30:00,mnr,13.53
2022-11-13T05:31:00,mnr,14.91
2022-11-13T05:32:00,mnr,14.96
2022-11-13T05:33:00,mnr,14.19
2022-11-13T05:34:00,mnr,14.36
2022-11-13T05:35:00,mnr,14.47
2022-11-13T05:36:00,mnr,14.68
2022-11-13T05:37:00,mnr,14.95
2022-11-13T05:38:00,mnr,15.55
2022-11-13T05:39:00,mnr,14.93
2022-11-13T05:40:00,mnr,14.78
2022-11-13T05:41:00,mnr,14.96
2022-11-13T05:42:00,mnr,14.45
2022-11-13T05:43:00,mnr,12.21
2022-11-13T05:44:00,mnr,12.06
2022-11-13T05:45:00,mnr,12.13
2022-11-13T05:46:00,mnr,12.23
2022-11-13T05:47:00,mnr,12.57
2022-11-13T05:48:00,mnr,12.36
2022-11-13T05:49:00,mnr,13.49
2022-11-13T05:50:00,mnr,13.01
2022-11-13T05:51:00,mnr,12.33
2022-11-13T05:52:00,mnr,12.41
2022-11-13T05:53:00,mnr,12.53
2022-11-13T05:54:00,mnr,12.55
2022-11-13T05:55:00,mnr,13.39
2022-11-13T05:56:00,mnr,12.59
2022-11-13T05:57:00,mnr,13.42
2022-11-13T05:58:00,mnr,13.30
2022-11-13T05:59:00,mnr,13.31
2022-11-13T06:00:00,mnr,13.26
2022-11-13T06:01:00,mnr,14.33
2022-11-13T06:02:00,mnr,14.50
2022-11-13T06:03:00,mnr,14.71
2022-11-13T06:04:00,mnr,12.77
2022-11-13T06:05:00,mnr,12.71
2022-11-13T06:06:00,mnr,12.70
2022-11-13T06:07:00,mnr,12.99
2022-11-13T06:08:00,mnr,12.75
2022-11-13T06:09:00,mnr,12.78
2022-11-13T06:10:00,mnr,12.91
2022-11-13T06:11:00,mnr,13.36
2022-11-13T06:12:00,mnr,13.35
2022-11-13T06:13:00,mnr,13.35
2022-11-13T06:14:00,mnr,13.62
2022-11-13T06:15:00,mnr,13.64
2022-11-13T06:16:00,mnr,13.64
2022-11-13T06:17:00,mnr,13.59
2022-11-13T06:18:00,mnr,13.60
2022-11-13T06:19:00,mnr,13.61
2022-11-13T06:20:00,mnr,13.58
2022-11-13T06:21:00,mnr,13.86
2022-11-13T06:22:00,mnr,13.66
2022-11-13T06:23:00,mnr,13.60
2022-11-13T06:24:00,mnr,15.03
2022-11-13T06:25:00,mnr,12.77
2022-11-13T06:26:00,mnr,12.84
2022-11-13T06:27:00,mnr,12.95
2022-11-13T06:28:00,mnr,13.01
2022-11-13T06:29:00,mnr,13.10
2022-11-13T06:30:00,mnr,13.26
2022-11-13T06:31:00,mnr,13.81
2022-11-13T06:32:00,mnr,13.78
2022-11-13T06:33:00,mnr,13.74
2022-11-13T06:34:00,mnr,14.84
2022-11-13T06:35:00,mnr,13.72
2022-11-13T06:36:00,mnr,13.63
2022-11-13T06:37:00,mnr,13.65
2022-11-13T06:38:00,mnr,13.61
2022-11-13T06:39:00,mnr,13.61
2022-11-13T06:40:00,mnr,13.58
2022-11-13T06:41:00,mnr,13.67
2022-11-13T06:42:00,mnr,13.68
2022-11-13T06:43:00,mnr,14.42
2022-11-13T06:44:00,mnr,13.69
2022-11-13T06:45:00,mnr,12.82
2022-11-13T06:46:00,mnr,12.54
2022-11-13T06:47:00,mnr,12.62
2022-11-13T06:48:00,mnr,12.92
2022-11-13T06:49:00,mnr,12.61
2022-11-13T06:50:00,mnr,12.51
2022-11-13T06:51:00,mnr,12.60
2022-11-13T06:52:00,mnr,13.30
2022-11-13T06:53:00,mnr,12.28
2022-11-13T06:54:00,mnr,12.36
2022-11-13T06:55:00,mnr,12.17
2022-11-13T06:56:00,mnr,12.10
2022-11-13T06:57:00,mnr,12.10
2022-11-13T06:58:00,mnr,12.12
2022-11-13T06:59:00,mnr,12.87
2022-11-13T07:00:00,mnr,12.93
2022-11-13T07:01:00,mnr,13.18
2022-11-13T07:02:00,mnr,14.68
2022-11-13T07:03:00,mnr,14.52
2022-11-13T07:04:00,mnr,15.19
2022-11-13T07:05:00,mnr,14.68
2022-11-13T07:06:00,mnr,14.81
2022-11-13T07:07:00,mnr,15.63
2022-11-13T07:08:00,mnr,16.42
2022-11-13T07:09:00,mnr,16.21
2022-11-13T07:10:00,mnr,15.47
2022-11-13T07:11:00,mnr,16.00
2022-11-13T07:12:00,mnr,16.08
2022-11-13T07:13:00,mnr,15.93
2022-11-13T07:14:00,mnr,15.71
2022-11-13T07:15:00,mnr,15.61
2022-11-13T07:16:00,mnr,15.35
2022-11-13T07:17:00,mnr,15.43
2022-11-13T07:18:00,mnr,15.67
2022-11-13T07:19:00,mnr,15.70
2022-11-13T07:20:00,mnr,15.65
2022-11-13T07:21:00,mnr,15.83
2022-11-13T07:22:00,mnr,15.63
2022-11-13T07:23:00,mnr,14.89
2022-11-13T07:24:00,mnr,14.79
2022-11-13T07:25:00,mnr,14.73
2022-11-13T07:26:00,mnr,15.11
2022-11-13T07:27:00,mnr,15.25
2022-11-13T07:28:00,mnr,15.11
2022-11-13T07:29:00,mnr,15.07
2022-11-13T07:30:00,mnr,14.53
2022-11-13T07:31:00,mnr,14.92
2022-11-13T07:32:00,mnr,14.80
2022-11-13T07:33:00,mnr,15.51
2022-11-13T07:34:00,mnr,14.84
2022-11-13T07:35:00,mnr,14.86
2022-11-13T07:36:00,mnr,14.97
2022-11-13T07:37:00,mnr,14.94
2022-11-13T07:38:00,mnr,14.96
2022-11-13T07:39:00,mnr,14.63
2022-11-13T07:40:00,mnr,14.40
2022-11-13T07:41:00,mnr,14.66
2022-11-13T07:42:00,mnr,14.28
2022-11-13T07:43:00,mnr,14.27
2022-11-13T07:44:00,mnr,15.08
2022-11-13T07:45:00,mnr,14.06
2022-11-13T07:46:00,mnr,15.83
2022-11-13T07:47:00,mnr,14.03
2022-11-13T07:48:00,mnr,14.11
2022-11-13T07:49:00,mnr,14.13
2022-11-13T07:50:00,mnr,14.05
2022-11-13T07:51:00,mnr,14.10
2022-11-13T07:52:00,mnr,14.17
2022-11-13T07:53:00,mnr,14.29
2022-11-13T07:54:00,mnr,14.56
2022-11-13T07:55:00,mnr,14.52
2022-11-13T07:56:00,mnr,15.63
2022-11-13T07:57:00,mnr,14.01
2022-11-13T07:58:00,mnr,14.59
2022-11-13T07:59:00,mnr,14.48
2022-11-13T08:00:00,mnr,13.71
2022-11-13T08:01:00,mnr,13.59
2022-11-13T08:02:00,mnr,14.23
2022-11-13T08:03:00,mnr,13.62
2022-11-13T08:04:00,mnr,14.86
2022-11-13T08:05:00,mnr,13.07
2022-11-13T08:06:00,mnr,13.08
2022-11-13T08:07:00,mnr,14.50
2022-11-13T08:08:00,mnr,13.55
2022-11-13T08:09:00,mnr,13.56
2022-11-13T08:10:00,mnr,13.73
2022-11-13T08:11:00,mnr,14.14
2022-11-13T08:12:00,mnr,13.57
2022-11-13T08:13:00,mnr,13.58
2022-11-13T08:14:00,mnr,13.53
2022-11-13T08:15:00,mnr,13.59
2022-11-13T08:16:00,mnr,13.54
2022-11-13T08:17:00,mnr,14.13
2022-11-13T08:18:00,mnr,13.13
2022-11-13T08:19:00,mnr,13.16
2022-11-13T08:20:00,mnr,13.41
2022-11-13T08:21:00,mnr,13.41
2022-11-13T08:22:00,mnr,13.41
2022-11-13T08:23:00,mnr,13.44
2022-11-13T08:24:00,mnr,13.48
2022-11-13T08:25:00,mnr,15.69
2022-11-13T08:26:00,mnr,13.54
2022-11-13T08:27:00,mnr,13.51
2022-11-13T08:28:00,mnr,13.48
2022-11-13T08:29:00,mnr,13.59
2022-11-13T08:30:00,mnr,14.41
2022-11-13T08:31:00,mnr,13.79
2022-11-13T08:32:00,mnr,14.44
2022-11-13T08:33:00,mnr,14.43
2022-11-13T08:34:00,mnr,15.10
2022-11-13T08:35:00,mnr,25.22
2022-11-13T08:36:00,mnr,16.03
2022-11-13T08:37:00,mnr,16.11
2022-11-13T08:38:00,mnr,15.99
2022-11-13T08:39:00,mnr,15.55
2022-11-13T08:40:00,mnr,15.53
2022-11-13T08:41:00,mnr,15.66
2022-11-13T08:42:00,mnr,15.65
2022-11-13T08:43:00,mnr,15.68
2022-11-13T08:44:00,mnr,15.74
2022-11-13T08:45:00,mnr,15.79
2022-11-13T08:46:00,mnr,17.59
2022-11-13T08:47:00,mnr,15.59
2022-11-13T08:48:00,mnr,15.70
2022-11-13T08:49:00,mnr,15.59
2022-11-13T08:50:00,mnr,16.25
2022-11-13T08:51:00,mnr,15.71
2022-11-13T08:52:00,mnr,15.68
2022-11-13T08:53:00,mnr,15.62
2022-11-13T08:54:00,mnr,15.47
2022-11-13T08:55:00,mnr,15.42
2022-11-13T08:56:00,mnr,15.32
2022-11-13T08:57:00,mnr,15.69
2022-11-13T08:58:00,mnr,15.75
2022-11-13T08:59:00,mnr,15.69
2022-11-13T09:00:00,mnr,15.70
2022-11-13T09:01:00,mnr,15.73
2022-11-13T09:02:00,mnr,16.11
2022-11-13T09:03:00,mnr,16.67
2022-11-13T09:04:00,mnr,16.22
2022-11-13T09:05:00,mnr,16.13
2022-11-13T09:06:00,mnr,16.04
2022-11-13T09:07:00,mnr,15.15
2022-11-13T09:08:00,mnr,15.23
2022-11-13T09:09:00,mnr,15.24
2022-11-13T09:10:00,mnr,15.27
2022-11-13T09:11:00,mnr,15.32
2022-11-13T09:12:00,mnr,15.28
2022-11-13T09:13:00,mnr,16.68
2022-11-13T09:14:00,mnr,15.68
2022-11-13T09:15:00,mnr,15.52
2022-11-13T09:16:00,mnr,16.78
2022-11-13T09:17:00,mnr,16.07
2022-11-13T09:18:00,mnr,15.78
2022-11-13T09:19:00,mnr,15.82
2022-11-13T09:20:00,mnr,15.70
2022-11-13T09:21:00,mnr,15.76
2022-11-13T09:22:00,mnr,15.64
2022-11-13T09:23:00,mnr,16.72
2022-11-13T09:24:00,mnr,15.80
2022-11-13T09:25:00,mnr,15.70
2022-11-13T09:26:00,mnr,14.86
2022-11-13T09:27:00,mnr,16.03
2022-11-13T09:28:00,mnr,13.93
2022-11-13T09:29:00,mnr,13.85
2022-11-13T09:30:00,mnr,14.33
2022-11-13T09:31:00,mnr,15.18
2022-11-13T09:32:00,mnr,14.45
2022-11-13T09:33:00,mnr,14.46
2022-11-13T09:34:00,mnr,15.64
2022-11-13T09:35:00,mnr,14.87
2022-11-13T09:36:00,mnr,14.87
2022-11-13T09:37:00,mnr,14.88
2022-11-13T09:38:00,mnr,16.56
2022-11-13T09:39:00,mnr,16.65
2022-11-13T09:40:00,mnr,16.68
2022-11-13T09:41:00,mnr,16.69
2022-11-13T09:42:00,mnr,16.63
2022-11-13T09:43:00,mnr,16.88
2022-11-13T09:44:00,mnr,16.85
2022-11-13T09:45:00,mnr,16.98
2022-11-13T09:46:00,mnr,16.90
2022-11-13T09:47:00,mnr,16.97
2022-11-13T09:48:00,mnr,18.80
2022-11-13T09:49:00,mnr,16.34
2022-11-13T09:50:00,mnr,15.63
2022-11-13T09:51:00,mnr,16.05
2022-11-13T09:52:00,mnr,16.91
2022-11-13T09:53:00,mnr,16.25
2022-11-13T09:54:00,mnr,16.17
2022-11-13T09:55:00,mnr,16.17
2022-11-13T09:56:00,mnr,16.18
2022-11-13T09:57:00,mnr,16.12
2022-11-13T09:58:00,mnr,16.23
2022-11-13T09:59:00,mnr,16.21
2022-11-13T10:00:00,mnr,15.97
2022-11-13T10:01:00,mnr,16.12
2022-11-13T10:02:00,mnr,16.12
2022-11-13T10:03:00,mnr,16.17
2022-11-13T10:04:00,mnr,16.22
2022-11-13T10:05:00,mnr,16.13
2022-11-13T10:06:00,mnr,16.15
2022-11-13T10:07:00,mnr,16.18
2022-11-13T10:08:00,mnr,16.25
2022-11-13T10:09:00,mnr,17.70
2022-11-13T10:10:00,mnr,15.39
2022-11-13T10:11:00,mnr,15.36
2022-11-13T10:12:00,mnr,16.11
2022-11-13T10:13:00,mnr,15.98
2022-11-13T10:14:00,mnr,16.35
2022-11-13T10:15:00,mnr,16.28
2022-11-13T10:16:00,mnr,16.13
2022-11-13T10:17:00,mnr,16.25
2022-11-13T10:18:00,mnr,16.18
2022-11-13T10:19:00,mnr,16.18
2022-11-13T10:20:00,mnr,16.28
2022-11-13T10:21:00,mnr,16.26
2022-11-13T10:22:00,mnr,16.20
2022-11-13T10:23:00,mnr,16.29
2022-11-13T10:24:00,mnr,17.01
2022-11-13T10:25:00,mnr,16.99
2022-11-13T10:26:00,mnr,16.95
2022-11-13T10:27:00,mnr,17.67
2022-11-13T10:28:00,mnr,17.22
2022-11-13T10:29:00,mnr,17.14
2022-11-13T10:30:00,mnr,16.31
2022-11-13T10:31:00,mnr,14.45
2022-11-13T10:32:00,mnr,14.88
2022-11-13T10:33:00,mnr,14.89
2022-11-13T10:34:00,mnr,14.80
2022-11-13T10:35:00,mnr,14.78
2022-11-13T10:36:00,mnr,14.82
2022-11-13T10:37:00,mnr,14.84
2022-11-13T10:38:00,mnr,14.91
2022-11-13T10:39:00,mnr,15.08
2022-11-13T10:40:00,mnr,17.02
2022-11-13T10:41:00,mnr,16.59
2022-11-13T10:42:00,mnr,17.38
2022-11-13T10:43:00,mnr,17.29
2022-11-13T10:44:00,mnr,17.34
2022-11-13T10:45:00,mnr,17.29
2022-11-13T10:46:00,mnr,17.30
2022-11-13T10:47:00,mnr,17.28
2022-11-13T10:48:00,mnr,17.60
2022-11-13T10:49:00,mnr,17.51
2022-11-13T10:50:00,mnr,17.20
2022-11-13T10:51:00,mnr,17.82
2022-11-13T10:52:00,mnr,17.25
2022-11-13T10:53:00,mnr,17.39
2022-11-13T10:54:00,mnr,17.30
2022-11-13T10:55:00,mnr,17.41
2022-11-13T10:56:00,mnr,17.48
2022-11-13T10:57:00,mnr,17.53
2022-11-13T10:58:00,mnr,18.19
2022-11-13T10:59:00,mnr,17.52
2022-11-13T11:00:00,mnr,19.71
2022-11-13T11:01:00,mnr,17.14
2022-11-13T11:02:00,mnr,17.12
2022-11-13T11:03:00,mnr,17.62
2022-11-13T11:04:00,mnr,17.36
2022-11-13T11:05:00,mnr,16.47
2022-11-13T11:06:00,mnr,16.62
2022-11-13T11:07:00,mnr,16.01
2022-11-13T11:08:00,mnr,16.36
2022-11-13T11:09:00,mnr,15.89
2022-11-13T11:10:00,mnr,15.84
2022-11-13T11:11:00,mnr,15.75
2022-11-13T11:12:00,mnr,15.66
2022-11-13T11:13:00,mnr,15.66
2022-11-13T11:14:00,mnr,15.72
2022-11-13T11:15:00,mnr,15.69
2022-11-13T11:16:00,mnr,15.92
2022-11-13T11:17:00,mnr,15.72
2022-11-13T11:18:00,mnr,16.88
2022-11-13T11:19:00,mnr,17.85
2022-11-13T11:20:00,mnr,18.20
2022-11-13T11:21:00,mnr,16.87
2022-11-13T11:22:00,mnr,16.43
2022-11-13T11:23:00,mnr,16.41
2022-11-13T11:24:00,mnr,16.83
2022-11-13T11:25:00,mnr,17.79
2022-11-13T11:26:00,mnr,17.17
2022-11-13T11:27:00,mnr,17.17
2022-11-13T11:28:00,mnr,17.27
2022-11-13T11:29:00,mnr,17.27
2022-11-13T11:30:00,mnr,17.31
2022-11-13T11:31:00,mnr,17.39
2022-11-13T11:32:00,mnr,18.49
2022-11-13T11:33:00,mnr,17.37
2022-11-13T11:34:00,mnr,18.09
2022-11-13T11:35:00,mnr,17.65
2022-11-13T11:36:00,mnr,17.64
2022-11-13T11:37:00,mnr,17.67
2022-11-13T11:38:00,mnr,17.73
2022-11-13T11:39:00,mnr,18.03
2022-11-13T11:40:00,mnr,17.82
2022-11-13T11:41:00,mnr,18.26
2022-11-13T11:42:00,mnr,16.89
2022-11-13T11:43:00,mnr,16.98
2022-11-13T11:44:00,mnr,16.96
2022-11-13T11:45:00,mnr,17.45
2022-11-13T11:46:00,mnr,17.38
2022-11-13T11:47:00,mnr,17.46
2022-11-13T11:48:00,mnr,17.29
2022-11-13T11:49:00,mnr,17.99
2022-11-13T11:50:00,mnr,18.00
2022-11-13T11:51:00,mnr,17.40
2022-11-13T11:52:00,mnr,17.36
2022-11-13T11:53:00,mnr,17.41
2022-11-13T11:54:00,mnr,17.91
2022-11-13T11:55:00,mnr,18.07
2022-11-13T11:56:00,mnr,17.84
2022-11-13T11:57:00,mnr,18.17
2022-11-13T11:58:00,mnr,19.79
2022-11-13T11:59:00,mnr,20.21
2022-11-13T12:00:00,mnr,20.17
2022-11-13T12:01:00,mnr,20.24
2022-11-13T12:02:00,mnr,20.38
2022-11-13T12:03:00,mnr,20.28
2022-11-13T12:04:00,mnr,20.19
2022-11-13T12:05:00,mnr,20.09
2022-11-13T12:06:00,mnr,20.43
2022-11-13T12:07:00,mnr,19.85
2022-11-13T12:08:00,mnr,19.75
2022-11-13T12:09:00,mnr,17.55
2022-11-13T12:10:00,mnr,17.38
2022-11-13T12:11:00,mnr,17.47
2022-11-13T12:12:00,mnr,17.81
2022-11-13T12:13:00,mnr,17.76
2022-11-13T12:14:00,mnr,18.01
2022-11-13T12:15:00,mnr,18.08
2022-11-13T12:16:00,mnr,18.71
2022-11-13T12:17:00,mnr,19.26
2022-11-13T12:18:00,mnr,18.19
2022-11-13T12:19:00,mnr,18.41
2022-11-13T12:20:00,mnr,18.45
2022-11-13T12:21:00,mnr,18.51
2022-11-13T12:22:00,mnr,19.36
2022-11-13T12:23:00,mnr,18.84
2022-11-13T12:24:00,mnr,19.39
2022-11-13T12:25:00,mnr,18.63
2022-11-13T12:26:00,mnr,19.27
2022-11-13T12:27:00,mnr,18.83
2022-11-13T12:28:00,mnr,18.76
2022-11-13T12:29:00,mnr,19.42
2022-11-13T12:30:00,mnr,18.22
2022-11-13T12:31:00,mnr,18.18
2022-11-13T12:32:00,mnr,18.21
2022-11-13T12:33:00,mnr,18.20
2022-11-13T12:34:00,mnr,18.17
2022-11-13T12:35:00,mnr,18.10
2022-11-13T12:36:00,mnr,18.27
2022-11-13T12:37:00,mnr,16.86
2022-11-13T12:38:00,mnr,17.33
2022-11-13T12:39:00,mnr,16.27
2022-11-13T12:40:00,mnr,16.31
2022-11-13T12:41:00,mnr,12.73
2022-11-13T12:42:00,mnr,16.12
2022-11-13T12:43:00,mnr,16.50
2022-11-13T12:44:00,mnr,16.53
2022-11-13T12:45:00,mnr,16.49
2022-11-13T12:46:00,mnr,16.49
2022-11-13T12:47:00,mnr,16.53
2022-11-13T12:48:00,mnr,16.32
2022-11-13T12:49:00,mnr,16.23
2022-11-13T12:50:00,mnr,16.39
2022-11-13T12:51:00,mnr,16.12
2022-11-13T12:52:00,mnr,16.23
2022-11-13T12:53:00,mnr,18.04
2022-11-13T12:54:00,mnr,17.53
2022-11-13T12:55:00,mnr,17.65
2022-11-13T12:56:00,mnr,18.53
2022-11-13T12:57:00,mnr,17.96
2022-11-13T12:58:00,mnr,18.36
2022-11-13T12:59:00,mnr,18.55
2022-11-13T13:00:00,mnr,18.46
2022-11-13T13:01:00,mnr,18.61
2022-11-13T13:02:00,mnr,18.20
2022-11-13T13:03:00,mnr,18.34
2022-11-13T13:04:00,mnr,18.22
2022-11-13T13:05:00,mnr,18.10
2022-11-13T13:06:00,mnr,18.08
2022-11-13T13:07:00,mnr,18.29
2022-11-13T13:08:00,mnr,19.28
2022-11-13T13:09:00,mnr,18.55
2022-11-13T13:10:00,mnr,18.36
2022-11-13T13:11:00,mnr,18.26
2022-11-13T13:12:00,mnr,18.17
2022-11-13T13:13:00,mnr,20.27
2022-11-13T13:14:00,mnr,17.65
2022-11-13T13:15:00,mnr,18.71
2022-11-13T13:16:00,mnr,17.59
2022-11-13T13:17:00,mnr,17.92
2022-11-13T13:18:00,mnr,18.05
2022-11-13T13:19:00,mnr,18.05
2022-11-13T13:20:00,mnr,17.81
2022-11-13T13:21:00,mnr,18.02
2022-11-13T13:22:00,mnr,19.28
2022-11-13T13:23:00,mnr,18.99
2022-11-13T13:24:00,mnr,19.22
2022-11-13T13:25:00,mnr,18.56
2022-11-13T13:26:00,mnr,18.54